CZ-6A DEB

Satellite information

Favourite Embed

Satellite Type and Status

DEBRISIN ORBIT

Key statistics

Satellite CZ-6A DEB at a glance.

Uptime

276

Days in orbit

Revolutions

≈ 14.0

Per day

Orbit

LEO

Low Earth Orbit

Inclination

89.1

Latest

Satellite identification and parameters

Extended collection of information and parameters for CZ-6A DEB.

Object identification

Identified? True

Debris? True

Object name: CZ-6A DEB

International designator: 2024-140KP

Object number (NORAD): 60884

Object ID (CCSDS): 60884

Country: PEOPLES REPUBLIC OF CHINA (PRC)

Current information (Y/N): Y

RCS size: SMALL

Orbital parameters

Period: 102.814 minutes

Inclination: 89.0768 deg

SMA: 7269.899 km

Apoapsis: 995.739 km

Periapsis: 787.788 km

RAAN: 323.6078 deg

Eccentricy: 0.0143022

Argument of periapsis: 70.5471 deg

Mean anomaly: 291.1098 deg

Mean motion: 14.00587414 rev/day

Mean motion (dot): 0.00001527 rev/day2

B* drag term: 0.00093143 1/REarth

Two-line elements (TLE)

Creation date: May 9, 2025, 2:46 a.m.

Reference frame: TEME

Reference center: EARTH

Epoch: May 8, 2025, 1:14 p.m. UTC

TLE line 0: 0 CZ-6A DEB

TLE line 1: 1 60884U 24140KP 25128.55191620 .00001527 00000-0 93143-3 0 9992

TLE line 2: 2 60884 89.0768 323.6078 0143022 70.5471 291.1098 14.00587414 36701

Live tracking on map

Real-time ground track for satellite CZ-6A DEB.

In-orbit conjunctions

A list of the most updated potential collisions computed for object CZ-6A DEB.

Target Orbit TCA Probability of collision Miss distance Type
SL-14 DEB LEO 2025-02-06 05:02:37 0.0001339432 190.0 (m) DEBRIS
SL-8 DEB LEO 2025-01-02 17:17:10 0.0003032034 949.0 (m) DEBRIS
COSMOS 2251 DEB LEO 2025-01-01 12:56:49 0.0001915141 397.0 (m) DEBRIS
PEGASUS DEB LEO 2024-11-29 06:47:41 0.0001092357 807.0 (m) DEBRIS
FENGYUN 1C DEB SSO 2024-11-10 23:47:29 0.0002172865 809.0 (m) DEBRIS

Associated space launch

18 Low Earth Orbit communication satellites with Ku, Q and V band payloads for the G60 constellation operated by Shanghai Spacecom Satellite Technology (SSST) with funding backed by the Shanghai local government. Initial constellation will consist of 1296 satellites by 2027 with long term plans to expand it to 12000 satellites.

CZ-6A DEB was lifted into orbit during the mission ‘Long March 6A | G60 Polar Group 01’, on board a Long March 6A space rocket.

The launch took place on Aug. 6, 2024, 6:42 a.m. from Launch Complex 9A.

For more information about the launch, click the button.

Launch to space Long March 6A | G60 Polar Group 01
Long March 6A | G60 Polar Group 01

Agency: N/A

Status: Launch Successful

Launch date: Aug. 6, 2024, 6:42 a.m. UTC

Rocket: Long March 6A

Launch pad: Launch Complex 9A

Location: Taiyuan Satellite Launch Center, People's Republic of China

...

Latest news about this satellite

News about space launch
Brightness of first Chinese broadband constellation satellites alarms astronomers

The first satellites of a Chinese broadband constellation are significantly brighter than those of Western systems, posing a new challenge for astronomers.

News about space launch
Chinese rocket stage breaks up into cloud of more than 700 pieces of space debris

HELSINKI — A Chinese Long March 6A rocket’s upper stage has fragmented into a cloud of over 700 pieces of space debris, adding to concerns about long-term orbital safety. China […]

News about space launch
China's Thousand Sails Megaconstellation Kicks Off with Dangerous Debris Field

China's Thousand Sails Megaconstellation Kicks Off with Dangerous Debris Field


Newsletter sign-up

Weekly statistics, charts and insights to help you stay on top of the space industry.